Temperature
19 20 21 22 21 19 20 18 19 19 19 19 19 18 18 19 19 19 19 20 20 20 19 19 19 19 19 18 18 17 17 17 17 17 17 17 17 17 16 16 16 16 16 16
20 21 21 22 21 20 21 20 20 20 19 18 18 19 18 18 18 18 19 19 19 19 19 19 19 18 18 18 18 17 17 17 17 17 16 16 16 16 16 16 16 16 16 16
18 20 21 21 21 21 21 20 20 20 20 18 17 17 18 18 18 19 19 19 19 19 19 19 19 18 18 18 17 17 17 16 16 16 16 16 16 16 16 16 16 16 15 15
17 20 20 20 20 20 20 20 19 19 18 17 17 18 19 19 19 19 19 19 19 19 19 19 18 18 17 17 17 17 16 16 16 16 16 15 15 15 15 15 15 15 15 15
15 18 19 21 20 20 20 20 18 18 17 17 17 17 17 19 20 20 19 19 19 19 19 18 18 17 17 17 16 16 16 16 16 15 15 15 15 15 15 14 14 14 14 14
15 18 19 20 20 19 20 20 18 17 17 16 17 17 17 18 19 19 19 19 18 18 18 18 17 17 17 16 16 16 16 16 15 15 15 14 14 14 14 14 14 14 14 13
16 18 18 18 18 19 20 20 18 18 17 17 17 18 18 18 18 18 19 18 18 18 17 17 17 16 16 16 16 16 15 15 15 14 14 14 14 14 14 13 13 13 13 13
15 17 18 18 18 18 18 18 18 17 18 18 18 18 18 18 17 17 18 18 17 17 17 16 16 16 16 16 15 15 15 15 14 14 14 13 13 13 13 13 13 13 13 12
14 15 15 16 16 17 18 17 17 18 18 18 18 17 17 17 17 17 17 17 17 16 16 16 15 15 15 15 15 14 14 14 14 13 13 13 13 13 13 13 12 12 12 12
14 15 15 15 16 17 18 18 18 18 18 19 18 17 17 17 16 16 16 16 16 16 16 15 15 15 14 14 14 14 14 14 13 13 13 13 12 12 12 12 12 12 12 11
14 14 15 15 16 17 18 18 18 18 18 18 18 17 17 16 16 16 16 15 15 15 15 15 14 14 14 14 13 13 13 13 13 13 12 12 12 12 12 11 11 11 11 11
14 14 14 15 16 16 17 17 17 17 17 17 17 17 16 16 15 15 15 15 15 14 14 14 13 13 13 13 13 13 13 13 12 12 12 12 11 11 11 11 10 10 10 10
15 15 15 15 16 16 17 17 17 17 17 17 16 16 16 15 15 15 14 14 14 14 13 13 13 13 13 13 13 12 12 12 12 11 11 11 11 11 10 10 10 9 9 9
15 15 15 15 15 16 16 17 17 16 16 16 15 15 15 14 14 14 14 14 13 13 13 13 12 12 12 12 12 12 12 12 11 11 11 11 10 10 10 10 9 9 9 9
15 15 15 15 15 16 16 16 16 15 15 15 15 14 14 14 14 13 13 13 13 12 12 12 12 12 11 11 11 11 11 11 11 11 10 10 10 10 9 9 9 9 8 8
15 15 15 15 15 15 15 15 15 15 14 14 14 14 14 13 13 13 12 12 12 12 11 11 11 11 11 11 11 11 11 11 10 10 10 10 9 9 9 9 9 8 8 8
14 14 14 14 14 14 15 15 15 14 13 13 13 13 13 12 12 12 12 12 12 12 11 11 11 11 11 11 11 10 10 10 10 10 10 10 9 9 9 9 8 8 8 7
15 15 15 15 14 14 14 13 13 13 13 12 12 12 12 12 11 11 11 11 11 11 11 11 11 10 10 10 10 10 10 10 10 10 9 9 9 9 8 8 8 7 7 7
14 14 14 14 14 13 13 12 12 12 12 12 12 12 12 11 11 11 11 11 11 11 10 10 10 10 10 10 10 10 10 10 9 9 9 9 8 8 8 7 7 7 7 6
14 14 13 13 13 13 12 12 12 12 12 11 12 11 11 11 11 10 10 10 10 10 10 10 10 10 10 10 9 9 9 9 9 9 8 8 8 8 7 7 7 7 6 6
13 13 13 12 12 12 12 12 12 11 11 11 11 11 11 10 10 10 10 10 9 9 9 9 9 9 9 9 9 9 9 9 9 8 8 8 7 7 7 7 6 6 6 6
12 12 12 12 11 11 11 11 11 11 11 11 11 10 10 10 10 9 10 9 9 9 9 9 9 9 9 9 9 9 9 8 8 8 8 7 7 7 7 6 6 6 6 5
11 11 11 11 11 11 11 11 11 11 11 10 10 10 10 10 9 9 9 9 9 9 9 9 9 9 9 9 8 8 8 8 8 7 7 7 7 6 6 6 6 6 5 5
11 11 11 11 11 11 10 10 10 10 10 10 10 10 10 9 9 9 9 9 9 9 9 9 9 8 8 8 8 8 8 8 7 7 7 7 7 6 6 6 6 5 5 5
11 11 11 11 10 10 10 10 10 10 10 9 9 9 9 9 9 9 9 9 9 9 8 8 8 8 8 8 8 8 7 7 7 7 7 7 6 6 6 6 5 5 5 5
10 10 10 10 10 10 10 10 9 9 9 9 9 9 9 9 9 9 8 8 8 8 8 8 8 8 8 8 8 7 7 7 7 7 7 6 6 6 6 6 6 5 5 5
9 9 9 9 9 9 9 9 9 9 9 9 9 8 8 8 8 8 8 8 8 8 8 8 7 7 7 7 7 7 7 7 7 7 7 6 6 6 6 6 6 5 5 5
Wind_Speed
6 5 5 5 8 9 7 10 10 10 9 10 10 9 7 6 7 7 6 6 6 5 5 5 5 5 5 4 4 3 3 2 1 1 1 1 2 2 2 2 2 2 3 2
2 3 4 2 5 9 7 6 6 5 8 6 4 6 7 8 9 8 7 7 6 6 6 6 5 5 5 4 4 4 4 3 2 2 2 2 2 2 3 3 3 3 3 3
3 2 5 2 6 8 6 5 8 9 9 5 7 9 11 10 10 9 8 7 7 6 6 5 5 5 5 4 5 5 4 4 4 3 3 2 3 4 4 3 4 4 4 4
3 4 5 8 3 5 6 4 5 5 5 7 7 6 4 6 9 9 8 7 6 6 5 5 5 5 5 6 5 5 5 4 4 4 4 4 4 4 4 4 4 4 5 5
5 4 3 3 1 4 5 4 4 5 3 5 8 7 3 2 6 7 7 7 6 6 6 6 6 6 7 6 5 5 4 4 4 4 4 4 5 4 4 5 5 5 5 6
5 5 6 6 2 1 4 3 3 6 9 10 8 5 3 4 6 8 8 7 7 7 7 7 5 6 7 6 5 4 3 4 4 5 5 5 5 4 4 5 5 6 7 6
5 3 6 5 3 3 6 7 3 7 9 10 6 5 6 9 8 8 9 9 8 8 7 6 6 7 7 6 4 3 4 5 6 5 5 6 6 5 6 7 7 7 8 7
5 4 6 2 1 6 6 1 4 6 7 8 9 11 11 11 11 10 10 9 9 9 7 6 6 7 7 5 4 5 6 7 6 6 5 6 7 6 6 7 8 7 7 7
5 5 3 2 3 2 3 3 4 6 8 11 12 11 12 11 10 9 9 9 8 9 8 6 5 6 7 5 5 6 8 8 7 7 6 6 6 7 6 6 6 6 6 6
1 2 2 2 1 1 2 4 6 8 10 11 12 13 13 11 10 8 7 8 8 9 8 6 6 6 6 6 6 8 8 7 7 8 8 7 6 5 5 5 5 6 6 5
1 2 2 3 2 3 5 7 9 8 8 10 13 12 11 11 10 9 7 6 7 8 8 7 6 7 6 6 7 9 8 8 7 7 8 8 8 7 6 5 4 6 5 5
5 5 3 2 1 3 5 7 9 10 9 8 9 11 11 10 9 8 8 7 7 7 8 7 7 7 6 5 7 8 8 7 6 6 7 7 8 9 14 11 13 12 9 7
3 1 2 2 3 4 5 6 8 9 10 10 9 10 11 9 8 9 9 8 8 7 7 7 7 7 5 5 7 8 8 7 6 6 6 6 6 7 8 9 14 14 12 11
2 3 3 2 4 6 8 9 11 11 10 10 10 10 10 10 9 9 8 8 8 8 7 7 7 6 5 5 7 8 8 7 7 6 6 6 6 6 6 7 6 6 9 11
1 2 4 5 7 8 8 10 12 11 10 10 9 10 10 10 10 8 7 8 9 8 7 7 7 6 5 6 8 8 7 6 6 6 6 6 6 6 6 7 7 5 5 6
3 5 6 7 8 8 9 10 11 10 10 9 9 9 9 10 10 9 8 9 9 8 6 6 6 5 5 7 8 7 6 9 8 7 6 6 6 6 6 6 6 5 5 4
6 5 6 6 6 6 6 7 9 10 10 10 9 10 10 11 10 9 8 8 8 7 6 6 5 5 6 7 7 6 6 7 9 7 6 6 6 6 6 6 5 5 4 3
5 6 6 8 8 7 7 7 9 10 10 10 10 11 11 11 10 8 8 8 9 8 6 5 6 7 7 7 6 6 6 5 5 6 6 5 6 5 6 6 6 5 4 4
5 6 7 7 8 8 9 9 9 9 9 10 11 10 10 10 10 9 8 9 8 7 4 5 8 8 7 7 8 6 6 7 6 6 6 7 6 5 5 5 5 4 4 4
7 8 9 9 9 9 10 10 10 10 9 10 11 11 11 10 9 10 10 8 4 3 4 6 7 7 6 7 8 6 7 7 7 7 6 6 6 5 5 5 4 4 4 4
8 10 10 11 10 9 10 10 10 10 10 10 11 11 11 9 9 8 9 7 4 4 6 8 6 6 6 6 8 6 7 7 7 6 6 6 5 5 5 4 4 4 4 3
8 9 11 11 11 10 9 9 10 11 10 10 11 11 11 10 9 8 6 5 4 5 6 5 5 7 8 8 7 7 7 7 6 6 5 5 5 4 4 4 4 3 3 3
8 9 10 11 11 11 10 9 10 10 10 10 10 10 10 8 6 7 5 3 4 6 6 5 7 11 11 8 6 7 7 6 6 5 5 4 4 4 4 3 3 3 2 2
9 9 9 10 11 11 10 9 8 8 9 9 8 9 9 8 5 4 4 6 7 8 6 7 10 11 10 6 6 6 5 5 5 4 4 4 3 3 3 3 2 2 2 2
10 10 10 11 10 9 9 10 10 10 10 8 8 7 6 5 6 5 5 6 8 9 6 7 10 9 6 5 5 5 4 4 4 4 4 4 3 3 2 2 2 2 2 2
9 8 7 7 7 8 7 8 7 7 8 8 6 5 6 5 6 6 6 6 8 8 6 5 5 6 5 4 4 4 4 4 4 4 4 3 3 3 2 2 2 2 2 2
9 8 8 8 7 7 7 7 8 7 7 7 7 5 6 6 6 7 7 6 6 5 5 4 4 4 4 4 4 3 3 3 3 3 3 3 2 2 2 2 2 2 3 3
Wind_Direction
209 198 163 170 173 170 171 176 178 216 219 236 216 199 188 165 148 142 142 141 139 138 129 119 116 114 114 113 109 109 105 105 134 173 153 143 133 129 121 117 125 123 115 107
211 199 168 170 177 176 184 176 194 198 237 241 181 152 157 160 156 156 162 160 150 146 137 131 129 126 117 115 112 108 103 90 78 84 93 114 119 113 100 93 94 97 100 99
207 202 116 215 209 183 188 191 173 199 223 174 165 176 178 171 164 165 163 157 157 158 150 142 137 133 130 117 107 100 90 76 67 73 86 95 102 95 96 98 97 93 92 94
136 117 182 238 238 182 176 200 201 215 213 180 178 157 148 157 158 158 152 149 152 150 137 126 122 120 112 105 101 98 90 80 74 75 78 84 87 84 84 89 93 93 89 88
123 154 231 282 192 162 165 229 206 189 153 124 120 90 65 136 148 153 150 144 144 137 126 120 121 123 116 108 104 98 88 78 71 81 84 84 88 89 93 98 93 87 85 84
122 139 203 232 254 226 125 256 223 169 154 145 130 137 201 156 127 124 121 122 123 118 113 113 113 118 114 110 103 97 91 84 79 81 87 85 83 85 86 95 97 93 81 74
136 165 244 249 273 121 159 234 196 165 157 153 159 164 140 121 110 112 113 114 115 112 110 110 113 114 109 105 101 100 99 95 89 89 92 90 82 75 83 90 90 86 81 69
137 154 234 286 120 172 206 202 139 144 145 135 126 116 115 116 115 114 110 109 109 107 100 95 104 111 108 103 98 97 98 96 96 94 94 93 90 82 84 92 91 87 83 71
181 199 247 275 250 269 177 145 137 138 135 131 126 123 122 119 117 113 111 109 106 108 102 89 87 105 111 104 102 103 98 93 91 90 88 90 96 95 90 91 97 94 90 83
207 277 309 329 351 36 111 131 129 133 133 130 127 130 126 123 118 114 110 112 112 113 109 98 86 91 102 104 103 102 99 94 91 90 85 78 78 81 90 96 103 103 100 97
236 272 24 14 31 79 87 102 110 110 116 129 130 131 130 128 126 123 115 113 116 118 117 108 97 93 96 101 104 100 97 95 91 87 89 79 69 58 68 63 90 109 109 112
207 215 180 201 154 103 110 116 120 116 105 108 121 125 123 123 124 123 121 116 114 113 113 107 100 94 89 96 107 109 104 99 99 98 95 95 92 76 56 66 72 76 86 99
203 171 162 141 94 93 106 108 109 111 118 116 112 117 120 121 119 119 117 116 117 116 112 108 102 94 87 95 103 106 110 109 108 108 106 105 104 104 92 66 61 63 69 84
155 123 106 106 109 99 104 105 101 97 98 106 111 110 113 113 113 112 115 119 116 111 108 107 103 96 92 100 102 103 106 108 111 110 110 107 103 101 102 104 90 63 53 71
40 125 143 123 108 106 109 111 108 107 108 107 111 115 119 119 116 114 114 114 110 106 105 106 104 99 99 104 105 107 107 107 106 107 106 105 105 102 100 100 100 95 85 68
95 89 111 120 123 123 125 125 124 123 121 117 116 117 117 115 111 108 109 114 116 114 113 110 107 109 110 109 106 104 103 109 108 110 110 109 108 107 105 105 103 101 98 94
139 138 135 135 132 126 124 127 132 130 128 126 126 122 116 112 108 106 106 106 108 108 107 112 114 111 108 110 111 110 107 110 108 107 109 113 112 110 110 110 109 105 93 86
170 163 156 151 145 133 122 120 125 128 131 130 126 121 120 120 118 116 112 106 99 89 80 91 107 110 108 108 108 110 109 107 106 108 108 109 110 110 110 111 113 109 100 87
135 133 128 128 130 130 125 124 122 122 124 126 124 120 117 116 116 115 111 107 105 101 88 94 106 106 107 109 109 108 111 110 104 102 105 108 109 110 111 112 112 112 112 106
117 121 123 120 119 123 124 122 119 118 121 124 120 114 111 111 114 113 106 96 90 108 116 110 109 103 103 106 105 108 112 114 113 110 109 112 111 110 111 114 117 119 119 117
121 124 124 122 118 116 118 122 122 121 122 124 122 119 117 113 111 111 109 99 70 86 102 104 104 103 100 105 103 107 110 112 114 117 118 116 113 111 112 115 118 121 122 120
123 123 123 122 120 115 112 113 115 116 118 115 115 116 115 112 108 100 91 106 114 105 104 104 106 108 108 106 104 106 108 110 111 113 115 118 120 120 119 119 120 124 130 133
121 121 122 122 121 118 110 109 112 116 118 119 121 122 120 118 119 120 114 103 115 111 107 108 113 112 110 106 107 109 111 113 116 119 123 126 130 133 135 135 136 140 145 151
114 113 114 115 115 115 112 108 106 107 108 108 112 119 120 115 99 89 110 116 113 112 107 113 114 112 109 108 111 113 114 118 120 122 125 127 130 134 139 143 151 161 165 169
112 111 113 115 115 116 116 114 107 103 101 99 96 95 100 113 122 122 113 112 113 111 107 110 112 112 109 111 115 118 121 126 129 132 133 137 143 147 149 155 166 176 183 189
108 108 109 108 113 117 119 118 115 114 112 107 96 93 94 97 106 110 108 107 109 108 107 111 115 113 113 116 121 124 124 126 128 136 143 146 150 154 161 169 177 190 202 208
99 100 101 98 95 102 110 114 116 117 119 119 111 102 103 103 104 105 106 108 109 107 107 110 115 117 117 117 116 116 119 125 132 137 142 145 156 171 184 189 197 202 202 199
Height
1472 1469 1470 1471 1475 1481 1484 1489 1497 1494 1490 1481 1477 1478 1481 1483 1486 1489 1491 1494 1496 1499 1501 1504 1507 1509 1510 1512 1514 1515 1515 1515 1516 1516 1517 1517 1518 1520 1521 1522 1523 1523 1524 1524
1470 1467 1468 1471 1471 1475 1476 1480 1482 1482 1483 1473 1474 1477 1480 1482 1484 1487 1491 1493 1496 1499 1502 1504 1506 1508 1510 1511 1513 1514 1515 1515 1515 1515 1515 1516 1517 1518 1519 1520 1521 1522 1522 1523
1480 1470 1470 1479 1471 1471 1472 1472 1475 1480 1474 1471 1473 1474 1476 1479 1482 1486 1489 1492 1496 1499 1501 1504 1506 1508 1510 1512 1513 1513 1514 1514 1514 1514 1514 1515 1516 1517 1518 1520 1521 1521 1522 1523
1482 1477 1489 1475 1462 1462 1466 1467 1467 1467 1466 1467 1468 1471 1475 1478 1481 1485 1488 1492 1496 1499 1501 1504 1506 1508 1510 1512 1513 1513 1513 1513 1513 1514 1514 1515 1516 1517 1518 1518 1519 1520 1521 1522
1487 1487 1479 1467 1461 1462 1466 1467 1463 1464 1465 1468 1470 1473 1477 1479 1482 1486 1489 1493 1496 1499 1501 1503 1506 1508 1510 1511 1512 1513 1513 1513 1513 1514 1515 1515 1516 1517 1518 1518 1519 1520 1521 1522
1483 1484 1486 1469 1458 1458 1462 1469 1461 1461 1464 1467 1469 1477 1479 1479 1482 1486 1489 1493 1496 1499 1501 1504 1506 1508 1509 1511 1512 1512 1513 1513 1514 1515 1515 1516 1516 1517 1518 1518 1519 1520 1521 1522
1478 1479 1474 1460 1457 1458 1473 1468 1457 1458 1461 1464 1467 1470 1474 1478 1482 1486 1489 1493 1496 1499 1501 1504 1506 1508 1509 1510 1511 1512 1513 1513 1514 1515 1516 1517 1517 1518 1519 1519 1520 1521 1521 1522
1477 1478 1476 1456 1456 1460 1459 1454 1455 1457 1460 1463 1466 1470 1473 1478 1482 1486 1490 1494 1497 1500 1502 1504 1506 1508 1509 1510 1511 1512 1513 1514 1515 1516 1516 1517 1518 1519 1520 1521 1521 1522 1523 1524
1467 1468 1459 1456 1455 1455 1454 1454 1455 1458 1461 1463 1466 1470 1474 1479 1483 1487 1491 1495 1498 1500 1503 1505 1506 1508 1509 1510 1511 1512 1513 1514 1515 1516 1517 1518 1519 1520 1521 1522 1523 1524 1525 1525
1462 1458 1456 1455 1454 1454 1454 1454 1456 1459 1462 1465 1467 1471 1475 1479 1484 1488 1492 1495 1498 1501 1503 1505 1507 1508 1510 1511 1512 1513 1514 1515 1516 1517 1518 1519 1520 1521 1522 1524 1524 1525 1526 1527
1461 1458 1456 1456 1455 1455 1455 1456 1458 1461 1464 1467 1469 1473 1476 1480 1485 1489 1493 1496 1499 1501 1503 1505 1507 1508 1510 1511 1512 1513 1514 1516 1517 1518 1519 1520 1521 1522 1524 1525 1526 1527 1528 1529
1459 1456 1457 1457 1457 1458 1458 1459 1460 1463 1466 1469 1472 1475 1478 1482 1486 1490 1494 1497 1500 1502 1504 1505 1507 1509 1510 1512 1513 1514 1515 1516 1518 1519 1520 1522 1523 1524 1525 1527 1528 1529 1530 1531
1453 1454 1456 1457 1458 1459 1460 1462 1463 1465 1468 1471 1475 1478 1481 1485 1488 1491 1495 1498 1501 1503 1505 1507 1508 1510 1511 1513 1514 1515 1516 1517 1519 1520 1521 1523 1524 1525 1526 1528 1530 1531 1532 1534
1453 1455 1456 1457 1458 1460 1462 1464 1466 1468 1472 1474 1477 1480 1484 1487 1490 1493 1496 1498 1501 1504 1506 1508 1509 1511 1513 1514 1515 1517 1518 1519 1520 1522 1523 1525 1526 1527 1529 1530 1531 1533 1534 1536
1454 1455 1456 1457 1459 1461 1464 1466 1467 1470 1474 1477 1480 1482 1485 1488 1491 1494 1497 1499 1502 1505 1507 1509 1510 1512 1514 1515 1517 1518 1519 1521 1522 1523 1525 1527 1528 1530 1531 1532 1534 1535 1536 1538
1455 1456 1456 1458 1460 1462 1465 1467 1468 1471 1474 1478 1481 1484 1487 1490 1492 1495 1498 1500 1503 1506 1508 1510 1512 1514 1515 1517 1519 1520 1522 1523 1524 1526 1527 1529 1530 1532 1533 1534 1535 1537 1538 1539
1455 1456 1458 1459 1461 1463 1465 1467 1469 1472 1475 1479 1482 1485 1488 1491 1493 1496 1499 1502 1504 1507 1510 1512 1513 1515 1517 1519 1521 1522 1524 1525 1527 1528 1529 1531 1532 1533 1535 1536 1537 1538 1540 1541
1454 1456 1457 1459 1461 1463 1466 1469 1472 1474 1477 1480 1484 1486 1489 1492 1495 1498 1500 1503 1506 1509 1511 1513 1515 1517 1519 1521 1522 1524 1526 1527 1529 1530 1531 1532 1534 1535 1536 1538 1539 1540 1541 1542
1454 1456 1458 1460 1462 1465 1467 1470 1473 1476 1480 1482 1485 1488 1491 1493 1496 1500 1503 1505 1508 1510 1512 1515 1517 1519 1521 1522 1524 1526 1527 1529 1530 1532 1533 1534 1535 1537 1538 1539 1540 1541 1542 1543
1454 1456 1458 1461 1463 1466 1469 1472 1475 1478 1481 1484 1487 1489 1492 1496 1499 1502 1505 1507 1509 1512 1514 1516 1518 1520 1522 1524 1526 1527 1529 1530 1532 1533 1534 1536 1537 1538 1539 1541 1541 1542 1544 1544
1454 1457 1459 1462 1464 1468 1471 1473 1476 1479 1483 1486 1489 1491 1494 1498 1501 1504 1507 1509 1512 1515 1517 1519 1520 1522 1524 1526 1528 1530 1531 1532 1534 1535 1536 1538 1539 1540 1541 1542 1543 1544 1545 1546
1455 1458 1460 1463 1466 1470 1473 1476 1478 1481 1485 1488 1491 1494 1497 1501 1504 1507 1510 1513 1515 1517 1519 1521 1523 1525 1527 1529 1531 1532 1533 1535 1536 1537 1539 1540 1541 1542 1543 1544 1544 1545 1546 1547
1457 1460 1463 1466 1469 1472 1476 1479 1482 1485 1488 1491 1494 1497 1500 1504 1507 1510 1513 1516 1518 1520 1522 1524 1526 1528 1530 1532 1533 1534 1536 1537 1538 1539 1541 1542 1543 1544 1544 1545 1546 1547 1547 1548
1460 1462 1466 1469 1472 1475 1478 1482 1485 1488 1491 1494 1498 1501 1503 1506 1510 1513 1516 1518 1520 1522 1524 1526 1529 1530 1532 1534 1535 1536 1538 1539 1540 1541 1542 1543 1544 1545 1545 1546 1547 1547 1548 1548
1463 1466 1469 1472 1475 1478 1482 1485 1488 1492 1495 1498 1501 1504 1507 1510 1513 1516 1518 1520 1523 1525 1527 1529 1531 1533 1534 1536 1537 1538 1540 1541 1542 1543 1544 1544 1545 1546 1546 1547 1547 1548 1548 1548
1467 1470 1473 1476 1479 1482 1485 1488 1491 1495 1498 1501 1505 1508 1511 1514 1516 1518 1521 1523 1525 1527 1529 1531 1533 1534 1536 1537 1538 1540 1541 1542 1543 1544 1544 1545 1546 1546 1547 1547 1547 1548 1548 1548
1471 1474 1477 1480 1483 1486 1489 1492 1495 1498 1502 1505 1507 1511 1513 1516 1519 1521 1523 1525 1527 1529 1531 1533 1535 1536 1537 1539 1540 1541 1542 1543 1544 1544 1545 1545 1546 1546 1547 1547 1547 1547 1547 1547